Key statistics
Satellite OBJECT G at a glance.
Uptime
826
Days in orbit
Revolutions
≈ 15.6
Per day
Orbit
LEO
Low Earth Orbit
Inclination
63.4
Latest
Satellite identification and parameters
Extended collection of information and parameters for OBJECT G.
Object identification
Identified? True
Debris? False
Object name: OBJECT G
International designator: 2022-023G
Object number (NORAD): 51952
Object ID (CCSDS): 51952
Country: PEOPLES REPUBLIC OF CHINA (PRC)
Current information (Y/N): Y
RCS size: MEDIUM
Orbital parameters
Decay date: June 8, 2024
Period: 92.389 minutes
Inclination: 63.4238 deg
SMA: 6769.757 km
Apoapsis: 442.042 km
Periapsis: 341.201 km
RAAN: 243.1457 deg
Eccentricy: 0.0074479
Argument of periapsis: 350.8278 deg
Mean anomaly: 9.1487 deg
Mean motion: 15.58630408 rev/day
Mean motion (dot): 0.00081282 rev/day2
B* drag term: 0.00091581 1/REarth
Two-line elements (TLE)
Creation date: Feb. 12, 2024, 3:07 a.m.
Reference frame: TEME
Reference center: EARTH
Epoch: Feb. 11, 2024, 9:18 p.m. UTC
TLE line 0: 0 OBJECT G
TLE line 1: 1 51952U 22023G 24042.88767463 .00081282 00000-0 91581-3 0 9990
TLE line 2: 2 51952 63.4238 243.1457 0074479 350.8278 9.1487 15.58630408108772
Live tracking on map
Satellite OBJECT G has decayed and is no longer in orbit. No tracking available.
In-orbit conjunctions
Satellite OBJECT G has decayed and is no longer in orbit. No conjunctions available.
Associated space launch
The first flight dedicated to the launch of the Internet constellation of GalaxySpace, a private company, planning the total deployment of more than 1000 satellites in earth orbit. The satellites broadcast in 5G, with a capacity of 10 Gb.
OBJECT G was lifted into orbit during the mission ‘Long March 2C | Yinhe-1 (x6)’, on board a Long March 2 space rocket.
The launch took place on March 5, 2022, 6:01 a.m. from Launch Complex 3 (LC-3/LA-1).
For more information about the launch, click the button.
Long March 2C | Yinhe-1 (x6)
Agency: N/A
Status: Launch Successful
Launch date: March 5, 2022, 6:01 a.m. UTC
Rocket: Long March 2
Launch pad: Launch Complex 3 (LC-3/LA-1)
Location: Xichang Satellite Launch Center, People's Republic of China
...
Latest news about this satellite
Long March rocket deploys six Chinese internet satellites
Six demonstration satellites for a future Chinese broadband internet mega-constellation launched March 5 on a Long March 2C rocket.
China launches test satellites for broadband constellation
China launched a set of commercial satellites Saturday for testing broadband services, on-orbit networking and integrating communications and remote sensing technologies.
Newsletter sign-up
Weekly statistics, charts and insights to help you stay on top of the space industry.
